Location: Poughquag
(41.6090°N, 73.6820°W)
Time: 20:50:28
(UTC-04:00)

Tiangong 2 - Visible Passes

Search period start: 29 March 2017 00:00
Search period end: 08 April 2017 00:00
Orbit: 374 x 383 km, 42.8° (Epoch: 28 March)

Date Brightness Start Highest point End Pass type
(mag) Time Alt. Az. Time Alt. Az. Time Alt. Az.
02 Apr 3.7 21:20:47 10° SW 21:21:15 13° SW 21:21:15 13° SW visible
03 Apr 2.3 20:19:43 10° SSW 20:22:19 24° SSE 20:23:17 21° ESE visible
04 Apr 1.0 20:54:05 10° WSW 20:57:09 61° SSE 20:57:14 60° SSE visible
05 Apr 1.7 19:52:44 10° SW 19:55:39 37° SSE 19:58:33 10° E visible
05 Apr 2.6 21:29:03 10° W 21:31:00 35° W 21:31:00 35° W visible
06 Apr 0.9 20:27:26 10° WSW 20:30:32 84° SSE 20:32:30 21° E visible
06 Apr 4.2 22:04:07 10° W 22:04:35 14° W 22:04:35 14° W visible
07 Apr 1.2 21:02:27 10° W 21:05:33 68° N 21:05:58 58° NE visible
